Regional Weather Roundup
Issued by NWS Charleston, WV

Home | Current Version | Previous Version | Text Only | Print | Product List | Glossary Off
Versions: 1 2 3 4 5 6 7 8 9 10 11 12 13 14 15 16 17 18 19 20 21 22 23 24 25 26 27 28 29 30 31 32 33 34 35 36 37 38 39 40 41 42 43 44 45 46 47 48 49 50

000
ASUS41 KRLX 060910
RWRRLX
West Virginia Regional Weather Roundup
National Weather Service Charleston WV
500 AM EDT WED MAY 06 2015

Note: "fair" indicates few or no clouds below 12,000 feet with no
significant weather and/or obstructions to visibility.

WVZ003-061000-
Northern Panhandle of West Virginia

CITY           SKY/WX    TMP DP  RH WIND       PRES   REMARKS
WHEELING       FOG       58  56  93 CALM      30.21S VSB 1
$$

WVZ009-061000-
Northwest West Virginia

CITY           SKY/WX    TMP DP  RH WIND       PRES   REMARKS
PARKERSBURG    CLEAR     56  54  93 CALM      30.22F FOG
$$

WVZ006-061000-
Western West Virginia

CITY           SKY/WX    TMP DP  RH WIND       PRES   REMARKS
HUNTINGTON     MOCLDY    57  55  93 CALM      30.20S
$$

WVZ015-061000-
West Central West Virginia

CITY           SKY/WX    TMP DP  RH WIND       PRES   REMARKS
CHARLESTON     CLEAR     56  54  93 CALM      30.21S
$$

WVZ022-031-061000-
North Central West Virginia

CITY           SKY/WX    TMP DP  RH WIND       PRES   REMARKS
CLARKSBURG     CLEAR     55  55 100 CALM      30.21S FOG
MORGANTOWN     CLEAR     58  54  86 CALM      30.22S
$$

WVZ025-035-042-045-061000-
Southern West Virginia

CITY           SKY/WX    TMP DP  RH WIND       PRES   REMARKS
BECKLEY        CLEAR     55  49  80 CALM      30.27S
LOGAN            N/A     61  54  77 CALM      30.21S
BLUEFIELD      CLOUDY    63  49  60 W6        30.29F
LEWISBURG      CLOUDY    57  55  91 CALM      30.27S
$$

WVZ047-061000-
Northern Mountains of West Virginia

CITY           SKY/WX    TMP DP  RH WIND       PRES   REMARKS
ELKINS         FOG       48  46  93 CALM      30.27S VSB 1/2
$$

WVZ052-061000-
Eastern Panhandle of West Virginia

CITY           SKY/WX    TMP DP  RH WIND       PRES   REMARKS
MARTINSBURG    CLEAR     57  55  93 CALM      30.20F FOG
PETERSBURG     FOG       54  51  90 CALM      30.24S VSB<1/4
$$



USA.gov is the U.S. government's official web portal to all federal, state and local government web resources and services.